TimeEST,TemperatureF,Dew PointF,Humidity,Sea Level PressureIn,VisibilityMPH,Wind Direction,Wind SpeedMPH,Gust SpeedMPH,PrecipitationIn,Events,Conditions,WindDirDegrees,DateUTC
12:54 AM,16.0,7.0,68,29.89,10.0,Calm,Calm,-,N/A,,Clear,0,2014-02-27 05:54:00
1:54 AM,15.1,9.0,77,29.87,10.0,Calm,Calm,-,N/A,,Clear,0,2014-02-27 06:54:00
2:54 AM,14.0,9.0,80,29.85,10.0,South,3.5,-,N/A,,Clear,180,2014-02-27 07:54:00
3:54 AM,14.0,7.0,74,29.81,10.0,Calm,Calm,-,N/A,,Clear,0,2014-02-27 08:54:00
4:54 AM,12.9,6.1,74,29.79,10.0,Calm,Calm,-,N/A,,Clear,0,2014-02-27 09:54:00
5:54 AM,12.9,6.1,74,29.78,10.0,Calm,Calm,-,N/A,,Clear,0,2014-02-27 10:54:00
6:54 AM,15.1,6.1,68,29.77,10.0,Calm,Calm,-,N/A,,Overcast,0,2014-02-27 11:54:00
7:54 AM,19.0,8.1,62,29.76,10.0,South,4.6,-,N/A,,Overcast,170,2014-02-27 12:54:00
8:54 AM,25.0,10.0,53,29.74,10.0,South,9.2,-,N/A,,Mostly Cloudy,180,2014-02-27 13:54:00
9:54 AM,30.0,12.0,47,29.73,10.0,SSW,10.4,16.1,N/A,,Overcast,210,2014-02-27 14:54:00
10:44 AM,28.9,17.1,61,29.71,2.0,SSW,6.9,18.4,0.00,Snow,Light Snow,200,2014-02-27 15:44:00
10:51 AM,28.4,17.6,64,29.71,1.5,SW,8.1,18.4,0.00,Snow,Light Snow,220,2014-02-27 15:51:00
10:54 AM,28.9,18.0,64,29.70,3.0,SW,11.5,16.1,0.00,Snow,Light Snow,230,2014-02-27 15:54:00
11:15 AM,30.0,18.0,61,29.69,7.0,Variable,6.9,-,0.00,Snow,Light Snow,0,2014-02-27 16:15:00
11:54 AM,30.9,16.0,54,29.68,10.0,West,10.4,-,0.00,,Overcast,270,2014-02-27 16:54:00
12:54 PM,32.0,16.0,52,29.66,10.0,West,13.8,21.9,0.00,,Overcast,260,2014-02-27 17:54:00
1:54 PM,34.0,5.0,30,29.67,10.0,West,20.7,35.7,N/A,,Mostly Cloudy,270,2014-02-27 18:54:00
2:54 PM,32.0,3.9,31,29.71,10.0,WNW,18.4,33.4,N/A,,Scattered Clouds,290,2014-02-27 19:54:00
3:54 PM,30.0,1.9,30,29.74,10.0,West,11.5,26.5,N/A,,Partly Cloudy,280,2014-02-27 20:54:00
4:54 PM,30.0,1.0,29,29.77,10.0,WNW,16.1,31.1,N/A,,Scattered Clouds,290,2014-02-27 21:54:00
5:54 PM,30.0,1.9,30,29.81,10.0,West,18.4,31.1,N/A,,Clear,280,2014-02-27 22:54:00
6:54 PM,28.0,6.1,39,29.88,10.0,WNW,12.7,24.2,N/A,,Overcast,300,2014-02-27 23:54:00
7:54 PM,24.1,5.0,44,29.96,10.0,NW,15.0,28.8,N/A,,Partly Cloudy,310,2014-02-28 00:54:00
8:54 PM,21.9,-2.9,34,30.00,10.0,WNW,13.8,32.2,N/A,,Clear,300,2014-02-28 01:54:00
9:54 PM,19.9,-9.0,27,30.06,10.0,West,17.3,26.5,N/A,,Clear,280,2014-02-28 02:54:00
10:54 PM,17.1,-8.0,33,30.11,10.0,NW,13.8,23.0,N/A,,Clear,310,2014-02-28 03:54:00
11:54 PM,15.1,-11.9,29,30.16,10.0,NW,6.9,23.0,N/A,,Clear,310,2014-02-28 04:54:00